FW5909 Weather Reports


time (UTC)temp
F
wind
direction
speed
knots
gust
knots
rain 1hr
in
rain 24hr
in
rain mn
in
humidity
%
barometer
mb
20260506062047 54 156 1.7 6.1 0.00 0.00 0.00 83 1007.9
20260506061621 55 190 2.6 7.0 0.00 0.00 0.00 83 1008.0
20260506061047 55 175 3.5 7.0 0.00 0.00 0.00 83 1008.0
20260506060546 55 169 2.6 7.0 0.00 0.00 0.00 83 1008.0
20260506051047 56 163 1.7 5.2 0.00 0.00 0.00 81 1008.1
20260506050547 56 154 2.6 6.1 0.00 0.00 0.00 81 1008.1
20260506050107 56 155 3.5 6.1 0.00 0.00 0.00 81 1008.1
20260506045047 56 151 1.7 6.1 0.00 0.00 0.00 81 1008.3
20260506044554 56 210 2.6 6.1 0.00 0.00 0.00 81 1008.2
20260506044045 56 159 2.6 4.3 0.00 0.00 0.00 81 1008.1
20260506043548 56 161 2.6 3.5 0.00 0.00 0.00 81 1008.0
20260506043055 56 166 0.9 3.5 0.00 0.00 0.00 81 1008.1
20260506042546 56 173 0.0 5.2 0.00 0.00 0.00 81 1008.0
20260506042048 56 143 0.9 5.2 0.00 0.00 0.00 81 1007.9
20260506041554 56 151 2.6 4.3 0.00 0.00 0.00 81 1007.9
20260506041048 56 214 0.9 7.0 0.00 0.00 0.00 81 1008.2
20260506040545 56 206 0.9 7.0 0.00 0.00 0.00 81 1007.9
20260506040101 56 165 2.6 5.2 0.00 0.00 0.00 81 1008.0
20260506035548 56 204 1.7 6.1 0.00 0.00 0.00 80 1008.0
20260506035045 56 163 0.9 6.1 0.00 0.00 0.00 80 1008.1
20260506034551 57 201 2.6 6.1 0.00 0.00 0.00 80 1008.1
20260506034045 57 150 1.7 6.1 0.00 0.00 0.00 79 1007.9
20260506033546 57 179 1.7 5.2 0.00 0.00 0.00 79 1008.0
20260506033052 57 189 1.7 5.2 0.00 0.00 0.00 79 1007.8
20260506032549 57 214 2.6 5.2 0.00 0.00 0.00 79 1008.0
20260506032046 57 162 1.7 5.2 0.00 0.00 0.00 79 1007.8
20260506031553 57 162 2.6 5.2 0.00 0.00 0.00 79 1007.9
20260506031049 57 153 2.6 5.2 0.00 0.00 0.00 79 1007.9
20260506030548 57 178 2.6 5.2 0.00 0.00 0.00 79 1007.8
20260506030057 58 169 2.6 4.3 0.00 0.00 0.00 79 1007.8
20260506025548 58 168 2.6 4.3 0.00 0.00 0.00 79 1007.8
20260506025048 58 144 1.7 4.3 0.00 0.00 0.00 78 1007.8
20260506024557 58 159 2.6 4.3 0.00 0.00 0.00 78 1007.9
20260506024048 58 151 1.7 2.6 0.00 0.00 0.00 78 1007.9
20260506023546 58 153 0.9 1.7 0.00 0.00 0.00 78 1008.0
20260506023051 58 0 0.0 0.9 0.00 0.00 0.00 78 1008.0
20260506022548 59 0 0.0 1.7 0.00 0.00 0.00 77 1008.0
20260506022048 59 222 0.0 3.5 0.00 0.00 0.00 77 1008.1
20260506021601 59 0 0.9 3.5 0.00 0.00 0.00 76 1007.9
20260506021047 59 117 1.7 4.3 0.00 0.00 0.00 76 1007.9
20260506020548 59 0 0.0 4.3 0.00 0.00 0.00 76 1008.1
20260506020051 60 163 2.6 4.3 0.00 0.00 0.00 75 1008.1
20260506015552 60 180 0.9 2.6 0.00 0.00 0.00 75 1008.3
20260506015050 60 144 0.9 2.6 0.00 0.00 0.00 75 1008.2
20260506014551 60 0 0.0 1.7 0.00 0.00 0.00 74 1008.1
20260506014048 61 148 0.0 1.7 0.00 0.00 0.00 74 1008.1
20260506013545 61 138 0.9 1.7 0.00 0.00 0.00 73 1008.1
20260506013059 61 0 0.0 0.0 0.00 0.00 0.00 73 1008.2
20260506012549 62 0 0.0 0.0 0.00 0.00 0.00 72 1008.2
20260506012049 62 0 0.0 0.0 0.00 0.00 0.00 72 1008.1
20260506011601 62 0 0.0 0.0 0.00 0.00 0.00 72 1008.0
20260506011048 62 0 0.0 0.0 0.00 0.00 0.00 71 1007.9
20260506010548 62 0 0.0 1.7 0.00 0.00 0.00 71 1007.9
20260506010053 63 0 0.0 2.6 0.00 0.00 0.00 70 1007.8
20260506005547 63 165 0.0 2.6 0.00 0.00 0.00 70 1007.7
20260506005047 63 154 1.7 2.6 0.00 0.00 0.00 69 1007.6
20260506004546 63 86 1.7 2.6 0.00 0.00 0.00 69 1007.6
20260506004046 64 166 0.9 1.7 0.00 0.00 0.00 69 1007.8
20260506003549 64 91 0.9 2.6 0.00 0.00 0.00 69 1007.6
20260506003049 64 105 1.7 2.6 0.00 0.00 0.00 70 1007.5
20260506002545 64 0 0.0 1.7 0.00 0.00 0.00 69 1007.7
20260506002045 64 307 0.0 1.7 0.00 0.00 0.00 68 1007.8
20260506001551 64 332 0.0 1.7 0.00 0.00 0.00 68 1007.4
20260506001048 64 0 0.0 3.5 0.00 0.00 0.00 67 1007.1
20260506000548 65 66 0.9 5.2 0.00 0.00 0.00 67 1006.9
20260506000048 65 155 2.6 5.2 0.00 0.00 0.00 67 1006.6
20260505235548 65 153 2.6 4.3 0.00 0.00 0.00 67 1006.4
20260505235130 65 154 0.0 3.5 0.00 0.00 0.00 66 1006.4
20260505234606 65 68 1.7 6.1 0.00 0.00 0.00 67 1006.3
20260505234047 65 65 0.9 6.1 0.00 0.00 0.00 67 1006.2
20260505233547 65 158 4.3 6.1 0.00 0.00 0.00 66 1006.2
20260505233058 66 135 2.6 5.2 0.00 0.00 0.00 66 1006.0
20260505232547 66 105 1.7 4.3 0.00 0.00 0.00 66 1005.9
20260505232047 66 102 2.6 4.3 0.00 0.00 0.00 66 1006.0
20260505231607 66 133 0.9 5.2 0.00 0.00 0.00 65 1006.2
20260505231045 66 218 1.7 5.2 0.00 0.00 0.00 65 1006.1
20260505230545 65 141 0.9 11.3 0.00 0.00 0.00 67 1005.8
20260505230100 65 0 2.6 11.3 0.00 0.00 0.00 67 1006.0
20260505225547 64 345 4.3 13.9 0.00 0.00 0.00 68 1006.4
20260505225047 64 195 6.1 13.9 0.00 0.00 0.00 67 1004.7
20260505224554 64 193 7.0 14.8 0.00 0.00 0.00 67 1004.4
20260505224050 64 224 7.8 14.8 0.00 0.00 0.00 67 1004.4
20260505223546 64 172 8.7 14.8 0.00 0.00 0.00 67 1004.4
20260505223103 65 218 7.0 15.6 0.00 0.00 0.00 67 1004.3
20260505222548 65 207 7.0 15.6 0.00 0.00 0.00 66 1004.3
20260505222051 65 192 9.6 19.1 0.00 0.00 0.00 66 1004.2
20260505221558 65 186 9.6 19.1 0.00 0.00 0.00 66 1004.2
20260505221048 65 227 9.6 17.4 0.00 0.00 0.00 66 1004.1
20260505220546 65 169 7.8 20.9 0.00 0.00 0.00 66 1004.1
20260505220057 65 197 10.4 21.7 0.00 0.00 0.00 66 1004.1
20260505215547 65 205 9.6 21.7 0.00 0.00 0.00 67 1003.9
20260505215047 65 167 10.4 21.7 0.00 0.00 0.00 67 1004.0
20260505214614 65 165 9.6 22.6 0.00 0.00 0.00 67 1004.1
20260505214046 64 196 10.4 22.6 0.00 0.00 0.00 67 1004.1
20260505213545 64 181 12.2 22.6 0.00 0.00 0.00 67 1003.9
20260505213057 64 184 12.2 22.6 0.00 0.00 0.00 67 1004.0
20260505212545 64 153 12.2 22.6 0.00 0.00 0.00 67 1004.0
20260505212048 65 157 9.6 21.7 0.00 0.00 0.00 67 1004.0
20260505211603 65 148 11.3 23.5 0.00 0.00 0.00 68 1004.0
20260505211047 65 133 13.9 23.5 0.00 0.00 0.00 66 1004.0
20260505210546 65 205 12.2 23.5 0.00 0.00 0.00 66 1004.0
20260505210056 66 152 13.9 23.5 0.00 0.00 0.00 65 1004.0
20260505205547 66 184 10.4 25.2 0.00 0.00 0.00 64 1003.9
20260505205048 67 152 13.0 25.2 0.00 0.00 0.00 63 1003.9
20260505204600 68 160 13.0 25.2 0.00 0.00 0.00 62 1003.9
20260505204046 68 187 13.0 19.1 0.00 0.00 0.00 62 1003.8
20260505203550 68 227 10.4 19.1 0.00 0.00 0.00 62 1004.2
20260505203059 68 217 10.4 20.9 0.00 0.00 0.00 62 1004.2
20260505202547 68 226 10.4 24.3 0.00 0.00 0.00 63 1004.1
20260505202045 68 189 9.6 24.3 0.00 0.00 0.00 64 1004.0
20260505201601 68 190 9.6 23.5 0.00 0.00 0.00 63 1004.1
20260505201045 68 185 13.9 23.5 0.00 0.00 0.00 62 1004.1
20260505200545 69 194 13.9 23.5 0.00 0.00 0.00 61 1004.2
20260505200106 69 180 11.3 21.7 0.00 0.00 0.00 62 1004.1
20260505195546 68 147 11.3 20.0 0.00 0.00 0.00 63 1004.3
20260505195049 68 162 11.3 20.9 0.00 0.00 0.00 65 1004.2
20260505194557 68 180 11.3 20.9 0.00 0.00 0.00 65 1004.2
20260505194045 68 172 9.6 20.9 0.00 0.00 0.00 65 1004.5
20260505193545 68 197 8.7 26.1 0.00 0.00 0.00 64 1004.4
20260505193057 67 153 12.2 26.1 0.00 0.00 0.00 64 1004.6
20260505192546 68 155 12.2 21.7 0.00 0.00 0.00 64 1004.6
20260505192048 68 157 13.0 20.0 0.00 0.00 0.00 64 1004.7
20260505191550 68 165 12.2 24.3 0.00 0.00 0.00 64 1004.9
20260505191049 68 146 13.9 24.3 0.00 0.00 0.00 65 1004.9
20260505190545 67 165 13.0 20.0 0.00 0.00 0.00 64 1005.1
20260505190051 68 152 10.4 22.6 0.00 0.00 0.00 64 1005.2
20260505185548 68 216 7.8 22.6 0.00 0.00 0.00 65 1005.2
20260505185047 68 158 14.8 22.6 0.00 0.00 0.00 64 1005.3
20260505184554 68 198 11.3 22.6 0.00 0.00 0.00 63 1005.3
20260505184048 68 155 10.4 21.7 0.00 0.00 0.00 63 1005.2
20260505183551 68 136 7.8 20.9 0.00 0.00 0.00 63 1005.4
20260505183103 68 205 10.4 21.7 0.00 0.00 0.00 63 1005.3
20260505182549 68 157 11.3 24.3 0.00 0.00 0.00 63 1005.6
20260505182048 68 155 14.8 24.3 0.00 0.00 0.00 64 1005.5
20260505181552 68 158 9.6 26.9 0.00 0.00 0.00 65 1005.5
20260505181048 67 158 12.2 26.9 0.00 0.00 0.00 64 1005.6
20260505180544 67 225 12.2 26.1 0.00 0.00 0.00 64 1005.5
20260505180057 67 183 16.5 26.9 0.00 0.00 0.00 63 1005.6
20260505175546 68 162 15.6 26.9 0.00 0.00 0.00 64 1005.5
20260505175045 69 172 14.8 26.1 0.00 0.00 0.00 61 1005.3
20260505174559 70 181 12.2 19.1 0.00 0.00 0.00 61 1005.5
20260505174046 70 178 9.6 19.1 0.00 0.00 0.00 62 1005.6
20260505173546 70 209 8.7 15.6 0.00 0.00 0.00 63 1005.7
20260505173050 69 202 10.4 21.7 0.00 0.00 0.00 63 1005.8
20260505172545 68 160 14.8 21.7 0.00 0.00 0.00 62 1005.8
20260505172048 69 165 13.9 22.6 0.00 0.00 0.00 61 1005.8
20260505171551 70 140 14.8 22.6 0.00 0.00 0.00 59 1005.8
20260505171046 71 169 11.3 20.0 0.00 0.00 0.00 60 1005.9
20260505170547 71 169 7.8 20.0 0.00 0.00 0.00 59 1005.9
20260505170057 72 185 12.2 16.5 0.00 0.00 0.00 57 1006.2
20260505165547 73 160 8.7 13.9 0.00 0.00 0.00 56 1006.3
20260505165048 73 134 7.0 17.4 0.00 0.00 0.00 56 1006.4
20260505164606 73 153 5.2 17.4 0.00 0.00 0.00 57 1006.5
20260505164047 73 145 11.3 17.4 0.00 0.00 0.00 55 1006.5
20260505163547 74 161 9.6 14.8 0.00 0.00 0.00 54 1006.7
20260505163055 75 143 6.1 14.8 0.00 0.00 0.00 54 1006.7
20260505162549 75 162 7.8 13.9 0.00 0.00 0.00 54 1006.6
20260505162046 75 151 5.2 13.9 0.00 0.00 0.00 54 1006.7
20260505161604 75 177 7.8 13.0 0.00 0.00 0.00 52 1006.8
20260505161046 75 226 7.8 20.0 0.00 0.00 0.00 51 1006.8
20260505160547 75 215 8.7 20.9 0.00 0.00 0.00 52 1007.1
20260505153103 73 177 6.1 11.3 0.00 0.00 0.00 55 1007.6
20260505152546 72 217 4.3 13.0 0.00 0.00 0.00 58 1007.8
20260505152048 71 214 6.1 13.0 0.00 0.00 0.00 58 1007.7
20260505151607 71 146 5.2 11.3 0.00 0.00 0.00 58 1007.7
20260505151048 70 137 7.0 10.4 0.00 0.00 0.00 59 1007.8
20260505150548 70 184 5.2 9.6 0.00 0.00 0.00 61 1007.8
20260505140547 66 195 5.2 11.3 0.00 0.00 0.00 64 1007.4
20260505140110 67 163 6.1 11.3 0.00 0.00 0.00 62 1007.5
20260505124549 63 254 7.0 11.3 0.00 0.00 0.00 67 1008.2
20260505124047 61 212 3.5 7.0 0.00 0.00 0.00 69 1008.1
20260505123546 61 199 2.6 7.0 0.00 0.00 0.00 69 1008.0
20260505123051 61 219 3.5 7.0 0.00 0.00 0.00 69 1007.8
20260505122547 61 211 2.6 7.0 0.00 0.00 0.00 70 1007.8
20260505122048 61 166 4.3 7.0 0.00 0.00 0.00 69 1007.7
20260505121549 60 176 2.6 5.2 0.00 0.00 0.00 70 1007.8
20260505121048 59 177 2.6 7.8 0.00 0.00 0.00 70 1007.8
20260505120546 59 188 2.6 7.8 0.00 0.00 0.00 72 1008.1
20260505120055 58 208 2.6 4.3 0.00 0.00 0.00 73 1007.9
20260505115545 58 194 1.7 4.3 0.00 0.00 0.00 73 1007.9
20260505115048 57 186 0.9 5.2 0.00 0.00 0.00 74 1007.9
20260505114559 56 155 0.9 6.1 0.00 0.00 0.00 76 1008.0
20260505114047 56 170 1.7 6.1 0.00 0.00 0.00 77 1008.2
20260505113549 55 229 2.6 7.0 0.00 0.00 0.00 78 1008.3
20260505113100 55 222 1.7 7.0 0.00 0.00 0.00 79 1008.3
20260505112546 54 212 2.6 7.0 0.00 0.00 0.00 78 1008.5
20260505112047 54 181 1.7 5.2 0.00 0.00 0.00 80 1008.4
20260505111553 53 224 1.7 4.3 0.00 0.00 0.00 81 1008.5
20260505111048 53 210 0.9 1.7 0.00 0.00 0.00 81 1008.3
20260505110545 52 200 0.0 1.7 0.00 0.00 0.00 82 1008.5
20260505102045 49 0 0.0 1.7 0.00 0.00 0.00 85 1008.3
20260505101553 49 0 0.0 1.7 0.00 0.00 0.00 85 1008.3
20260505101048 49 0 0.0 1.7 0.00 0.00 0.00 85 1008.4
20260505100544 49 208 0.0 0.9 0.00 0.00 0.00 84 1008.5
20260505100049 49 223 0.0 0.9 0.00 0.00 0.00 84 1008.4
20260505095547 49 0 0.0 0.9 0.00 0.00 0.00 83 1008.4
20260505095047 49 183 0.0 0.9 0.00 0.00 0.00 83 1008.3
20260505094546 49 0 0.0 0.9 0.00 0.00 0.00 82 1008.4
20260505094048 50 0 0.0 1.7 0.00 0.00 0.00 82 1008.3
20260505093548 50 0 0.0 1.7 0.00 0.00 0.00 81 1008.4
20260505093057 50 210 0.0 0.9 0.00 0.00 0.00 81 1008.3
20260505092547 50 203 0.0 2.6 0.00 0.00 0.00 80 1008.2
20260505092046 50 0 0.0 2.6 0.00 0.00 0.00 80 1008.3
20260505091603 51 0 0.0 2.6 0.00 0.00 0.00 79 1008.3
20260505091050 51 0 0.0 3.5 0.00 0.00 0.00 78 1008.3
20260505090545 51 192 1.7 3.5 0.00 0.00 0.00 78 1008.3
20260505090052 51 167 1.7 3.5 0.00 0.00 0.00 77 1008.5
20260505085546 52 156 1.7 2.6 0.00 0.00 0.00 75 1008.4
20260505085047 52 153 0.9 1.7 0.00 0.00 0.00 74 1008.5
20260505084555 52 150 0.9 1.7 0.00 0.00 0.00 74 1008.6
20260505084049 53 191 0.0 1.7 0.00 0.00 0.00 73 1008.5
20260505083547 53 0 0.0 1.7 0.00 0.00 0.00 73 1008.7
20260505083059 53 162 0.9 1.7 0.00 0.00 0.00 72 1008.6
20260505082548 53 144 0.0 1.7 0.00 0.00 0.00 71 1008.7
20260505082049 53 0 0.0 0.9 0.00 0.00 0.00 71 1008.7
20260505081550 54 148 0.0 0.9 0.00 0.00 0.00 70 1008.6
20260505081050 54 0 0.0 0.9 0.00 0.00 0.00 69 1008.6
20260505080545 54 170 0.0 0.9 0.00 0.00 0.00 69 1008.8
20260505080052 54 0 0.0 2.6 0.00 0.00 0.00 69 1008.7
20260505075545 54 0 0.0 2.6 0.00 0.00 0.00 69 1008.7
20260505075045 55 0 0.0 3.5 0.00 0.00 0.00 68 1008.7
20260505074549 55 231 0.0 3.5 0.00 0.00 0.00 68 1008.6
20260505074045 55 205 0.0 3.5 0.00 0.00 0.00 68 1008.7
20260505073547 55 0 0.0 2.6 0.00 0.00 0.00 68 1008.6
20260505073057 55 0 0.0 2.6 0.00 0.00 0.00 67 1008.8
20260505072548 55 219 0.0 2.6 0.00 0.00 0.00 67 1008.8
20260505072046 55 175 0.9 2.6 0.00 0.00 0.00 67 1008.7
20260505071558 55 243 0.0 2.6 0.00 0.00 0.00 67 1008.7
20260505071045 55 258 0.0 5.2 0.00 0.00 0.00 66 1008.7
20260505070552 56 233 0.9 5.2 0.00 0.00 0.00 66 1008.7